Terminal Aerodrome Forecast
Issued by NWS

Home | Current Version | Previous Version | Text Only | Print | Product List | Glossary On
Versions: 1 2 3 4 5 6 7 8 9 10 11 12 13 14 15 16 17 18 19 20
846
FTAK31 PAJN 232335
TAFAYA
TAF
PAYA 232335Z 2400/2424 09006KT P6SM SCT015 BKN035 OVC040
      TEMPO 2400/2402 06006KT 2SM -SHSNRA BKN015 OVC020
     FM240700 08010KT 1SM -SN BKN006 OVC025 WS020/12040KT
     FM241200 10015G25KT 3SM -RASN OVC012 WS020/13050KT
     FM241800 10015G25KT 4SM -RA BR FEW006 SCT010 OVC025
      AMD LTD TO CLD VIS AND WIND 2401/2409=

USA.gov is the U.S. government's official web portal to all federal, state and local government web resources and services.